Regional Weather Roundup
Issued by NWS Green Bay, WI

Home | Current Version | Previous Version | Text Only | Print | Product List | Glossary On
Versions: 1 2 3 4 5 6 7 8 9 10 11 12 13 14 15 16 17 18 19 20 21 22 23 24 25 26 27 28 29 30 31 32 33 34 35 36 37 38 39 40 41 42 43 44 45 46 47 48 49 50
504
ASUS43 KGRB 030600
RWRGRB

NORTH-CENTRAL AND NORTHEAST WISCONSIN REGIONAL WEATHER ROUNDUP
NATIONAL WEATHER SERVICE GREEN BAY WI
100 AM CDT TUE MAY 03 2016

WIZ005-009-010>012-018-019-030700-
NORTH CENTRAL WISCONSIN

CITY           SKY/WX    TMP DP  RH WIND       PRES   REMARKS
IRONWOOD         N/A     37  34  87 CALM      29.90F
MANITOWISH WTR NOT AVBL
ARBOR VITAE    NOT AVBL
EAGLE RIVER    NOT AVBL
LAND O LAKES   NOT AVBL
RHINELANDER    CLEAR     38  32  79 CALM      29.95F
PHILLIPS       CLEAR     38  34  87 CALM      29.95F
ANTIGO         NOT AVBL
TOMAHAWK       NOT AVBL
MERRILL        NOT AVBL
$$

WIZ013-073-030700-
NORTHEAST WISCONSIN

CITY           SKY/WX    TMP DP  RH WIND       PRES   REMARKS
IRON MOUNTAIN  CLEAR     38  31  76 CALM      29.91F
MARINETTE      CLEAR     41  34  75 SW3       29.95F
$$

WIZ017-030-035>037-045-030700-
CENTRAL WISCONSIN

CITY           SKY/WX    TMP DP  RH WIND       PRES   REMARKS
MEDFORD        NOT AVBL
WAUSAU         CLEAR     48  38  68 CALM      29.94F
MOSINEE        NOT AVBL
MARSHFIELD     CLEAR     49  34  56 W6        29.96F
WISC RAPIDS    CLEAR     41  33  73 CALM      29.98F
STEVENS POINT  NOT AVBL
WAUPACA        NOT AVBL
SHAWANO        CLEAR     50  37  59 CALM      29.96F
CLINTONVILLE   NOT AVBL
WAUTOMA        CLEAR     40  34  79 CALM      29.98F
$$

WIZ038-039-048-051-030700-
FOX VALLEY

CITY           SKY/WX    TMP DP  RH WIND       PRES   REMARKS
NWS GREEN BAY  CLEAR     44  37  76 CALM      29.96F
APPLETON       NOT AVBL
OSHKOSH        PTCLDY    46  35  65 S8        29.97F
FOND DU LAC    CLEAR     41  34  76 S5        29.98F
$$

WIZ022-050-052-030700-
EAST CENTRAL WISCONSIN

CITY           SKY/WX    TMP DP  RH WIND       PRES   REMARKS
EPHRAIM        NOT AVBL
STURGEON BAY   CLEAR     43  30  61 S6        29.98F
MANITOWOC      NOT AVBL
SHEBOYGAN      CLEAR     42  35  76 SW3       29.98F
$$

LMZ563-521-522-541>543-030700-
LAKESHORE

STATION/POSITION TIME  TEMP    WIND        PRES    VSBY  WAVE
                       AIR SEA DIR/SP/G                  HT/PER
                 (UTC) (F)     (DEG/KT/KT) (MB)    (MI)  (FT/S)
SHEBOYGAN LKSHOR 0500   48     250/  5/  7 1016.1F
KEWAUNEE LKSHORE 0500   44     290/  3/  4 1014.6F
ALGOMA MARINA    0500             CALM       N/A
NORTHPORT PIER   0500   47     220/  2/  4 1014.6F
N MID LAKE BUOY  0450   44 38  290/  2/  4 1015.0F         0
CHAMBERS ISLAND  0500   42     190/  3/  5 1014.9F
MENOMINEE LKSHOR 0500   51     200/  5/  7 1013.8F
$$




USA.gov is the U.S. government's official web portal to all federal, state and local government web resources and services.